TimeCDT,TemperatureF,Dew PointF,Humidity,Sea Level PressureIn,VisibilityMPH,Wind Direction,Wind SpeedMPH,Gust SpeedMPH,PrecipitationIn,Events,Conditions,WindDirDegrees,DateUTC
12:57 AM,68.0,64.0,87,30.00,10.0,Calm,Calm,-,N/A,,Clear,0,2013-06-19 05:57:00
1:57 AM,66.9,63.0,87,29.99,10.0,SSE,3.5,-,N/A,,Clear,150,2013-06-19 06:57:00
2:57 AM,64.9,62.1,90,30.01,10.0,Calm,Calm,-,N/A,,Clear,0,2013-06-19 07:57:00
3:57 AM,64.0,61.0,90,30.01,10.0,Calm,Calm,-,N/A,,Clear,0,2013-06-19 08:57:00
4:57 AM,63.0,61.0,93,30.01,10.0,East,3.5,-,N/A,,Clear,100,2013-06-19 09:57:00
5:57 AM,64.0,62.1,93,30.02,10.0,Calm,Calm,-,N/A,,Clear,0,2013-06-19 10:57:00
6:57 AM,66.9,64.9,93,30.04,10.0,SE,3.5,-,N/A,,Clear,130,2013-06-19 11:57:00
7:57 AM,70.0,66.9,90,30.04,10.0,East,6.9,-,N/A,,Clear,100,2013-06-19 12:57:00
8:57 AM,75.0,69.1,82,30.05,10.0,East,4.6,-,N/A,,Clear,100,2013-06-19 13:57:00
9:57 AM,79.0,66.9,66,30.06,10.0,ESE,3.5,-,N/A,,Clear,110,2013-06-19 14:57:00
10:57 AM,80.1,63.0,56,30.05,10.0,ESE,8.1,-,N/A,,Clear,110,2013-06-19 15:57:00
11:57 AM,82.0,64.9,56,30.04,10.0,ESE,9.2,-,N/A,,Clear,110,2013-06-19 16:57:00
12:57 PM,82.9,61.0,47,30.04,10.0,SSE,9.2,-,N/A,,Partly Cloudy,160,2013-06-19 17:57:00
1:57 PM,84.9,64.0,49,30.02,10.0,SSE,11.5,-,N/A,,Partly Cloudy,160,2013-06-19 18:57:00
2:57 PM,86.0,62.1,44,30.01,10.0,East,5.8,-,N/A,,Partly Cloudy,100,2013-06-19 19:57:00
3:57 PM,87.1,61.0,41,30.00,10.0,South,10.4,20.7,N/A,,Partly Cloudy,170,2013-06-19 20:57:00
4:57 PM,86.0,61.0,43,29.98,10.0,SSE,10.4,-,N/A,,Clear,160,2013-06-19 21:57:00
5:57 PM,84.0,61.0,46,29.97,10.0,SSE,10.4,-,N/A,,Clear,150,2013-06-19 22:57:00
6:57 PM,82.9,62.1,49,29.99,10.0,South,9.2,-,N/A,,Clear,180,2013-06-19 23:57:00
7:57 PM,80.1,61.0,52,29.99,10.0,SSE,9.2,-,N/A,,Clear,160,2013-06-20 00:57:00
8:57 PM,77.0,62.1,60,29.99,10.0,SSE,6.9,-,N/A,,Clear,150,2013-06-20 01:57:00
9:57 PM,73.9,63.0,68,30.00,10.0,SE,5.8,-,N/A,,Clear,140,2013-06-20 02:57:00
10:57 PM,73.0,63.0,71,30.02,10.0,SE,5.8,-,N/A,,Clear,130,2013-06-20 03:57:00
11:57 PM,71.1,63.0,75,30.03,10.0,SE,6.9,-,N/A,,Clear,130,2013-06-20 04:57:00